| time (UTC) | temp F | wind direction | speed MPH | gust MPH | rain 1hr in | rain 24hr in | rain mn in | humidity % | barometer mb |
| 20260507164017 | 55 | 0 | 0.0 | 3.0 | 0.01 | 0.69 | 0.20 | 74 | 1012.3 |
| 20260507163516 | 55 | 360 | 1.0 | 3.0 | 0.01 | 0.69 | 0.20 | 69 | 1012.7 |
| 20260507163034 | 55 | 360 | 1.0 | 3.0 | 0.01 | 0.69 | 0.20 | 69 | 1012.7 |
| 20260507162518 | 55 | 360 | 1.0 | 3.0 | 0.01 | 0.69 | 0.20 | 68 | 1012.7 |
| 20260507162016 | 55 | 360 | 1.0 | 4.0 | 0.01 | 0.69 | 0.20 | 70 | 1012.5 |
| 20260507161551 | 55 | 0 | 1.0 | 4.0 | 0.01 | 0.69 | 0.20 | 67 | 1012.7 |
| 20260507161016 | 56 | 360 | 2.0 | 4.0 | 0.00 | 0.68 | 0.19 | 67 | 1012.8 |
| 20260507160515 | 56 | 360 | 2.0 | 4.0 | 0.00 | 0.68 | 0.19 | 64 | 1013.0 |
| 20260507160037 | 56 | 360 | 1.0 | 4.0 | 0.00 | 0.68 | 0.19 | 67 | 1012.7 |
| 20260507155516 | 56 | 0 | 0.0 | 4.0 | 0.00 | 0.68 | 0.19 | 67 | 1012.7 |
| 20260507155017 | 55 | 360 | 1.0 | 5.0 | 0.00 | 0.68 | 0.19 | 71 | 1012.7 |
| 20260507154538 | 55 | 0 | 2.0 | 8.0 | 0.00 | 0.68 | 0.19 | 68 | 1012.7 |
| 20260507154015 | 55 | 360 | 3.0 | 8.0 | 0.00 | 0.68 | 0.19 | 70 | 1012.8 |
| 20260507153515 | 54 | 360 | 2.0 | 6.0 | 0.00 | 0.68 | 0.19 | 68 | 1012.8 |
| 20260507153032 | 54 | 360 | 3.0 | 6.0 | 0.00 | 0.68 | 0.19 | 69 | 1012.9 |
| 20260507152520 | 54 | 360 | 1.0 | 5.0 | 0.00 | 0.68 | 0.19 | 75 | 1012.8 |
| 20260507152015 | 54 | 360 | 1.0 | 5.0 | 0.00 | 0.68 | 0.19 | 73 | 1012.7 |
| 20260507151534 | 53 | 360 | 0.0 | 5.0 | 0.00 | 0.68 | 0.19 | 77 | 1012.8 |
| 20260507151016 | 53 | 360 | 1.0 | 5.0 | 0.00 | 0.68 | 0.19 | 76 | 1012.9 |
| 20260507150517 | 53 | 0 | 0.0 | 4.0 | 0.00 | 0.68 | 0.19 | 78 | 1013.0 |
| 20260507150042 | 53 | 360 | 1.0 | 4.0 | 0.00 | 0.68 | 0.19 | 76 | 1013.0 |
| 20260507145517 | 53 | 360 | 1.0 | 5.0 | 0.00 | 0.70 | 0.19 | 77 | 1013.0 |
| 20260507145019 | 53 | 0 | 0.0 | 5.0 | 0.00 | 0.70 | 0.19 | 79 | 1013.0 |
| 20260507144534 | 53 | 360 | 2.0 | 5.0 | 0.00 | 0.70 | 0.19 | 75 | 1013.2 |
| 20260507144017 | 53 | 0 | 0.0 | 4.0 | 0.00 | 0.70 | 0.19 | 78 | 1013.4 |
| 20260507143519 | 53 | 0 | 0.0 | 3.0 | 0.00 | 0.70 | 0.19 | 81 | 1013.4 |
| 20260507143032 | 53 | 360 | 2.0 | 3.0 | 0.00 | 0.70 | 0.19 | 79 | 1013.4 |
| 20260507142515 | 53 | 360 | 1.0 | 3.0 | 0.00 | 0.70 | 0.19 | 80 | 1013.5 |
| 20260507142015 | 53 | 0 | 0.0 | 4.0 | 0.00 | 0.70 | 0.19 | 81 | 1013.4 |
| 20260507141545 | 52 | 0 | 0.0 | 4.0 | 0.00 | 0.70 | 0.19 | 81 | 1013.7 |
| 20260507141017 | 52 | 360 | 1.0 | 4.0 | 0.00 | 0.70 | 0.19 | 79 | 1013.7 |
| 20260507140515 | 52 | 360 | 0.0 | 4.0 | 0.00 | 0.70 | 0.19 | 81 | 1013.7 |
| 20260507140038 | 52 | 360 | 2.0 | 5.0 | 0.00 | 0.70 | 0.19 | 80 | 1013.6 |
| 20260507135517 | 52 | 360 | 2.0 | 5.0 | 0.00 | 0.72 | 0.19 | 81 | 1013.7 |
| 20260507135021 | 52 | 360 | 2.0 | 5.0 | 0.00 | 0.72 | 0.19 | 81 | 1013.7 |
| 20260507134534 | 52 | 360 | 2.0 | 5.0 | 0.00 | 0.72 | 0.19 | 81 | 1013.6 |
| 20260507134016 | 52 | 360 | 2.0 | 6.0 | 0.00 | 0.72 | 0.19 | 81 | 1013.7 |
| 20260507133517 | 52 | 360 | 1.0 | 6.0 | 0.00 | 0.72 | 0.19 | 82 | 1013.7 |
| 20260507133032 | 52 | 360 | 3.0 | 6.0 | 0.00 | 0.72 | 0.19 | 81 | 1013.8 |
| 20260507132519 | 52 | 360 | 2.0 | 8.0 | 0.00 | 0.72 | 0.19 | 83 | 1013.7 |
| 20260507132015 | 52 | 360 | 3.0 | 9.0 | 0.00 | 0.72 | 0.19 | 81 | 1013.6 |
| 20260507131538 | 53 | 360 | 3.0 | 9.0 | 0.00 | 0.72 | 0.19 | 82 | 1013.6 |
| 20260507131016 | 53 | 360 | 3.0 | 8.0 | 0.00 | 0.72 | 0.19 | 83 | 1013.7 |
| 20260507130517 | 53 | 360 | 3.0 | 8.0 | 0.00 | 0.72 | 0.19 | 84 | 1013.7 |
| 20260507130034 | 53 | 360 | 3.0 | 6.0 | 0.00 | 0.72 | 0.19 | 85 | 1013.6 |
| 20260507125515 | 53 | 360 | 2.0 | 8.0 | 0.00 | 0.81 | 0.19 | 86 | 1013.7 |
| 20260507125017 | 53 | 360 | 3.0 | 8.0 | 0.00 | 0.81 | 0.19 | 88 | 1013.6 |
| 20260507124538 | 53 | 360 | 2.0 | 6.0 | 0.00 | 0.81 | 0.19 | 89 | 1013.6 |
| 20260507124015 | 53 | 360 | 4.0 | 6.0 | 0.00 | 0.81 | 0.19 | 90 | 1013.7 |
| 20260507123518 | 53 | 360 | 2.0 | 5.0 | 0.00 | 0.81 | 0.19 | 91 | 1013.5 |
| 20260507123039 | 53 | 360 | 1.0 | 5.0 | 0.00 | 0.81 | 0.19 | 92 | 1013.5 |
| 20260507122515 | 53 | 360 | 0.0 | 4.0 | 0.00 | 0.81 | 0.19 | 92 | 1013.3 |
| 20260507122015 | 53 | 0 | 0.0 | 4.0 | 0.00 | 0.81 | 0.19 | 92 | 1013.2 |
| 20260507121541 | 53 | 360 | 1.0 | 4.0 | 0.00 | 0.81 | 0.19 | 92 | 1013.3 |
| 20260507121016 | 53 | 360 | 1.0 | 3.0 | 0.00 | 0.81 | 0.19 | 92 | 1013.3 |
| 20260507120516 | 53 | 0 | 0.0 | 4.0 | 0.00 | 0.81 | 0.19 | 93 | 1013.4 |
| 20260507120042 | 53 | 360 | 1.0 | 8.0 | 0.00 | 0.81 | 0.19 | 93 | 1013.2 |
| 20260507115516 | 53 | 360 | 3.0 | 8.0 | 0.00 | 0.81 | 0.19 | 93 | 1013.1 |
| 20260507115016 | 53 | 360 | 2.0 | 8.0 | 0.00 | 0.81 | 0.19 | 93 | 1012.9 |
| 20260507114532 | 53 | 360 | 3.0 | 8.0 | 0.00 | 0.81 | 0.19 | 93 | 1012.9 |
| 20260507114015 | 53 | 360 | 3.0 | 5.0 | 0.00 | 0.81 | 0.19 | 94 | 1012.8 |
| 20260507113515 | 53 | 360 | 1.0 | 3.0 | 0.00 | 0.81 | 0.19 | 94 | 1013.0 |
| 20260507113040 | 53 | 360 | 0.0 | 4.0 | 0.00 | 0.81 | 0.19 | 94 | 1013.2 |
| 20260507112516 | 52 | 0 | 0.0 | 4.0 | 0.00 | 0.81 | 0.19 | 94 | 1013.0 |
| 20260507112018 | 52 | 360 | 2.0 | 4.0 | 0.00 | 0.81 | 0.19 | 94 | 1012.8 |
| 20260507111535 | 52 | 0 | 0.0 | 2.0 | 0.00 | 0.81 | 0.19 | 94 | 1012.9 |
| 20260507111015 | 52 | 0 | 0.0 | 2.0 | 0.00 | 0.81 | 0.19 | 94 | 1012.7 |
| 20260507110515 | 52 | 0 | 1.0 | 2.0 | 0.00 | 0.81 | 0.19 | 94 | 1012.7 |
| 20260507110037 | 52 | 0 | 0.0 | 0.0 | 0.00 | 0.81 | 0.19 | 93 | 1012.8 |
| 20260507105515 | 52 | 0 | 0.0 | 0.0 | 0.00 | 0.81 | 0.19 | 93 | 1012.9 |
| 20260507105017 | 52 | 0 | 0.0 | 1.0 | 0.00 | 0.81 | 0.19 | 93 | 1013.0 |
| 20260507104532 | 52 | 0 | 0.0 | 3.0 | 0.00 | 0.81 | 0.19 | 93 | 1012.9 |
| 20260507104017 | 52 | 0 | 0.0 | 4.0 | 0.00 | 0.81 | 0.19 | 93 | 1012.9 |
| 20260507103518 | 52 | 0 | 1.0 | 4.0 | 0.00 | 0.81 | 0.19 | 93 | 1012.8 |
| 20260507103033 | 52 | 360 | 1.0 | 3.0 | 0.00 | 0.81 | 0.19 | 94 | 1012.5 |
| 20260507102515 | 52 | 0 | 0.0 | 3.0 | 0.00 | 0.81 | 0.19 | 94 | 1012.4 |
| 20260507102016 | 52 | 360 | 0.0 | 2.0 | 0.00 | 0.81 | 0.19 | 93 | 1012.5 |
| 20260507101532 | 52 | 0 | 0.0 | 0.0 | 0.00 | 0.81 | 0.19 | 94 | 1012.7 |
| 20260507101015 | 52 | 0 | 0.0 | 0.0 | 0.00 | 0.81 | 0.19 | 94 | 1012.6 |
| 20260507100517 | 52 | 0 | 0.0 | 0.0 | 0.00 | 0.81 | 0.19 | 93 | 1012.5 |
| 20260507100039 | 52 | 0 | 0.0 | 2.0 | 0.00 | 0.81 | 0.19 | 93 | 1012.4 |
| 20260507095517 | 52 | 0 | 0.0 | 2.0 | 0.00 | 0.81 | 0.19 | 93 | 1012.1 |
| 20260507095016 | 52 | 0 | 0.0 | 2.0 | 0.00 | 0.81 | 0.19 | 93 | 1012.2 |
| 20260507094532 | 52 | 0 | 0.0 | 2.0 | 0.00 | 0.81 | 0.19 | 93 | 1012.1 |
| 20260507094015 | 52 | 0 | 0.0 | 2.0 | 0.00 | 0.81 | 0.19 | 93 | 1012.1 |
| 20260507093515 | 52 | 0 | 0.0 | 2.0 | 0.00 | 0.81 | 0.19 | 93 | 1012.1 |
| 20260507093030 | 52 | 0 | 0.0 | 2.0 | 0.00 | 0.81 | 0.19 | 93 | 1012.0 |
| 20260507092515 | 52 | 0 | 0.0 | 2.0 | 0.00 | 0.81 | 0.19 | 93 | 1012.1 |
| 20260507092014 | 52 | 0 | 0.0 | 2.0 | 0.00 | 0.81 | 0.19 | 93 | 1012.2 |
| 20260507091532 | 52 | 0 | 0.0 | 2.0 | 0.00 | 0.81 | 0.19 | 93 | 1012.1 |
| 20260507091017 | 52 | 360 | 0.0 | 2.0 | 0.00 | 0.81 | 0.19 | 93 | 1012.0 |
| 20260507090514 | 52 | 0 | 0.0 | 1.0 | 0.00 | 0.81 | 0.19 | 93 | 1012.0 |
| 20260507090033 | 52 | 0 | 0.0 | 1.0 | 0.00 | 0.81 | 0.19 | 93 | 1011.9 |
| 20260507085518 | 52 | 0 | 0.0 | 1.0 | 0.00 | 0.81 | 0.19 | 93 | 1011.8 |
| 20260507085018 | 52 | 0 | 0.0 | 4.0 | 0.00 | 0.81 | 0.19 | 93 | 1011.7 |
| 20260507084535 | 53 | 0 | 0.0 | 4.0 | 0.00 | 0.81 | 0.19 | 93 | 1011.9 |
| 20260507084017 | 52 | 360 | 2.0 | 4.0 | 0.00 | 0.81 | 0.19 | 93 | 1011.9 |
| 20260507083515 | 52 | 360 | 1.0 | 6.0 | 0.00 | 0.81 | 0.19 | 93 | 1011.9 |
| 20260507083035 | 52 | 360 | 2.0 | 6.0 | 0.00 | 0.81 | 0.19 | 92 | 1012.0 |
| 20260507082518 | 52 | 360 | 1.0 | 4.0 | 0.00 | 0.81 | 0.19 | 92 | 1012.0 |
| 20260507082015 | 53 | 360 | 1.0 | 4.0 | 0.00 | 0.81 | 0.19 | 92 | 1011.9 |
| 20260507081544 | 53 | 360 | 2.0 | 4.0 | 0.00 | 0.81 | 0.19 | 92 | 1011.9 |
| 20260507081015 | 53 | 360 | 1.0 | 4.0 | 0.00 | 0.81 | 0.19 | 92 | 1012.0 |
| 20260507080515 | 53 | 0 | 0.0 | 4.0 | 0.00 | 0.81 | 0.19 | 92 | 1012.0 |
| 20260507080036 | 53 | 360 | 0.0 | 5.0 | 0.00 | 0.81 | 0.19 | 92 | 1011.9 |
| 20260507075517 | 53 | 360 | 1.0 | 9.0 | 0.00 | 0.81 | 0.19 | 92 | 1012.1 |
| 20260507075015 | 53 | 360 | 3.0 | 12.0 | 0.00 | 0.81 | 0.19 | 92 | 1011.9 |
| 20260507074535 | 53 | 360 | 3.0 | 12.0 | 0.00 | 0.81 | 0.19 | 92 | 1011.7 |
| 20260507074014 | 53 | 360 | 5.0 | 10.0 | 0.00 | 0.81 | 0.19 | 92 | 1011.5 |
| 20260507073517 | 53 | 360 | 2.0 | 12.0 | 0.01 | 0.81 | 0.19 | 92 | 1011.3 |
| 20260507073032 | 53 | 360 | 4.0 | 12.0 | 0.01 | 0.81 | 0.19 | 92 | 1011.2 |
| 20260507072515 | 53 | 360 | 6.0 | 10.0 | 0.01 | 0.81 | 0.19 | 92 | 1011.4 |
| 20260507072014 | 53 | 360 | 4.0 | 10.0 | 0.01 | 0.81 | 0.19 | 92 | 1011.4 |
| 20260507071537 | 53 | 360 | 4.0 | 9.0 | 0.01 | 0.81 | 0.19 | 92 | 1011.3 |
| 20260507071017 | 53 | 360 | 5.0 | 9.0 | 0.01 | 0.81 | 0.19 | 92 | 1011.3 |
| 20260507070518 | 53 | 360 | 2.0 | 12.0 | 0.01 | 0.81 | 0.19 | 92 | 1011.2 |
| 20260507070039 | 53 | 360 | 5.0 | 15.0 | 0.01 | 0.81 | 0.19 | 92 | 1011.3 |
| 20260507065515 | 53 | 360 | 5.0 | 15.0 | 0.01 | 0.81 | 0.19 | 92 | 1011.2 |
| 20260507065015 | 54 | 360 | 5.0 | 15.0 | 0.01 | 0.81 | 0.19 | 92 | 1011.3 |
| 20260507064541 | 54 | 360 | 6.0 | 15.0 | 0.01 | 0.81 | 0.19 | 92 | 1011.3 |
| 20260507064015 | 54 | 360 | 5.0 | 12.0 | 0.01 | 0.81 | 0.19 | 92 | 1011.4 |
| 20260507063515 | 54 | 360 | 6.0 | 11.0 | 0.00 | 0.80 | 0.18 | 92 | 1011.6 |
| 20260507063040 | 54 | 360 | 5.0 | 12.0 | 0.00 | 0.80 | 0.18 | 92 | 1011.4 |
| 20260507062517 | 55 | 360 | 6.0 | 12.0 | 0.00 | 0.80 | 0.18 | 93 | 1011.3 |
| 20260507062016 | 55 | 360 | 6.0 | 14.0 | 0.00 | 0.80 | 0.18 | 93 | 1011.6 |
| 20260507061538 | 55 | 360 | 5.0 | 14.0 | 0.00 | 0.80 | 0.18 | 93 | 1011.5 |
| 20260507061015 | 55 | 360 | 5.0 | 11.0 | 0.00 | 0.80 | 0.18 | 94 | 1011.4 |
| 20260507060514 | 55 | 360 | 6.0 | 11.0 | 0.01 | 0.80 | 0.18 | 94 | 1011.8 |
| 20260507060035 | 55 | 360 | 4.0 | 11.0 | 0.01 | 0.80 | 0.18 | 94 | 1011.7 |
| 20260507055518 | 55 | 360 | 5.0 | 12.0 | 0.02 | 0.80 | 0.18 | 94 | 1011.7 |
| 20260507055016 | 55 | 360 | 5.0 | 13.0 | 0.02 | 0.80 | 0.18 | 94 | 1011.6 |
| 20260507054606 | 56 | 360 | 7.0 | 13.0 | 0.03 | 0.80 | 0.18 | 94 | 1011.4 |
| 20260507054017 | 56 | 360 | 7.0 | 12.0 | 0.06 | 0.80 | 0.18 | 94 | 1011.5 |
| 20260507053518 | 56 | 360 | 3.0 | 10.0 | 0.12 | 0.80 | 0.18 | 94 | 1011.3 |
| 20260507053036 | 56 | 360 | 3.0 | 10.0 | 0.14 | 0.80 | 0.18 | 94 | 1011.2 |
| 20260507052517 | 56 | 360 | 6.0 | 10.0 | 0.16 | 0.80 | 0.18 | 94 | 1011.0 |
| 20260507052020 | 56 | 360 | 3.0 | 8.0 | 0.16 | 0.80 | 0.18 | 94 | 1011.1 |
| 20260507051532 | 56 | 360 | 3.0 | 8.0 | 0.16 | 0.80 | 0.18 | 94 | 1011.1 |
| 20260507051019 | 57 | 360 | 4.0 | 8.0 | 0.16 | 0.80 | 0.18 | 94 | 1011.2 |
| 20260507050517 | 57 | 360 | 1.0 | 5.0 | 0.16 | 0.79 | 0.17 | 94 | 1010.9 |
| 20260507050036 | 57 | 360 | 0.0 | 9.0 | 0.16 | 0.79 | 0.17 | 94 | 1011.1 |
| 20260507045517 | 57 | 0 | 3.0 | 9.0 | 0.16 | 0.78 | 0.16 | 94 | 1011.1 |
| 20260507045016 | 57 | 360 | 3.0 | 11.0 | 0.20 | 0.78 | 0.16 | 94 | 1011.1 |
| 20260507044534 | 57 | 360 | 5.0 | 11.0 | 0.25 | 0.76 | 0.14 | 93 | 1011.4 |
| 20260507044013 | 58 | 360 | 6.0 | 11.0 | 0.31 | 0.72 | 0.10 | 93 | 1010.4 |
| 20260507043517 | 58 | 360 | 1.0 | 5.0 | 0.39 | 0.68 | 0.06 | 94 | 1010.7 |
| 20260507043034 | 58 | 0 | 2.0 | 6.0 | 0.46 | 0.66 | 0.04 | 93 | 1011.4 |
| 20260507042517 | 58 | 360 | 3.0 | 6.0 | 0.47 | 0.64 | 0.02 | 93 | 1011.7 |
| 20260507042016 | 58 | 0 | 2.0 | 6.0 | 0.48 | 0.64 | 0.02 | 93 | 1011.4 |
| 20260507041542 | 58 | 360 | 1.0 | 4.0 | 0.48 | 0.64 | 0.02 | 93 | 1011.4 |
| 20260507041017 | 58 | 360 | 0.0 | 3.0 | 0.48 | 0.64 | 0.02 | 93 | 1011.2 |
| 20260507040518 | 59 | 0 | 0.0 | 10.0 | 0.47 | 0.63 | 0.01 | 93 | 1011.4 |
| 20260507040034 | 59 | 360 | 3.0 | 10.0 | 0.46 | 0.62 | 0.00 | 92 | 1011.5 |
| 20260507035517 | 59 | 360 | 4.0 | 9.0 | 0.46 | 0.62 | 0.62 | 92 | 1011.7 |
| 20260507035017 | 59 | 360 | 3.0 | 9.0 | 0.41 | 0.57 | 0.57 | 92 | 1011.4 |
| 20260507034541 | 60 | 360 | 3.0 | 11.0 | 0.34 | 0.50 | 0.50 | 91 | 1011.7 |
| 20260507034017 | 60 | 360 | 5.0 | 11.0 | 0.24 | 0.40 | 0.40 | 90 | 1011.4 |
| 20260507033521 | 61 | 360 | 4.0 | 12.0 | 0.11 | 0.27 | 0.27 | 90 | 1011.2 |
| 20260507033029 | 61 | 360 | 5.0 | 12.0 | 0.03 | 0.19 | 0.19 | 90 | 1011.2 |
| 20260507032516 | 61 | 360 | 5.0 | 10.0 | 0.00 | 0.16 | 0.16 | 90 | 1010.7 |
| 20260507032017 | 62 | 360 | 4.0 | 9.0 | 0.00 | 0.16 | 0.16 | 90 | 1010.5 |
| 20260507031532 | 62 | 360 | 5.0 | 9.0 | 0.00 | 0.16 | 0.16 | 90 | 1010.7 |
| 20260507031017 | 62 | 360 | 3.0 | 8.0 | 0.00 | 0.16 | 0.16 | 90 | 1010.7 |
| 20260507030517 | 62 | 360 | 2.0 | 8.0 | 0.00 | 0.16 | 0.16 | 90 | 1010.6 |
| 20260507030033 | 62 | 360 | 3.0 | 8.0 | 0.00 | 0.16 | 0.16 | 90 | 1010.9 |
| 20260507025516 | 62 | 360 | 3.0 | 8.0 | 0.00 | 0.16 | 0.16 | 91 | 1011.0 |
| 20260507025016 | 62 | 360 | 3.0 | 8.0 | 0.00 | 0.16 | 0.16 | 91 | 1011.2 |
| 20260507024534 | 63 | 360 | 2.0 | 9.0 | 0.00 | 0.16 | 0.16 | 91 | 1010.9 |
| 20260507024053 | 63 | 360 | 4.0 | 9.0 | 0.00 | 0.16 | 0.16 | 91 | 1010.7 |
| 20260507024015 | 63 | 360 | 4.0 | 9.0 | 0.00 | 0.16 | 0.16 | 91 | 1010.7 |
| 20260507023515 | 63 | 360 | 3.0 | 8.0 | 0.00 | 0.16 | 0.16 | 91 | 1010.4 |
| 20260507023032 | 63 | 360 | 1.0 | 8.0 | 0.00 | 0.16 | 0.16 | 92 | 1010.1 |
| 20260507022516 | 63 | 360 | 2.0 | 8.0 | 0.00 | 0.16 | 0.16 | 92 | 1010.6 |
| 20260507022015 | 63 | 360 | 4.0 | 8.0 | 0.00 | 0.16 | 0.16 | 92 | 1010.6 |
| 20260507021534 | 64 | 360 | 3.0 | 6.0 | 0.00 | 0.16 | 0.16 | 92 | 1010.3 |
| 20260507021019 | 64 | 360 | 2.0 | 6.0 | 0.00 | 0.16 | 0.16 | 92 | 1010.4 |
| 20260507020517 | 64 | 360 | 3.0 | 5.0 | 0.01 | 0.16 | 0.16 | 92 | 1010.5 |
| 20260507020034 | 64 | 360 | 3.0 | 5.0 | 0.03 | 0.16 | 0.16 | 92 | 1010.4 |
| 20260507015516 | 64 | 360 | 1.0 | 6.0 | 0.03 | 0.16 | 0.16 | 92 | 1010.0 |
| 20260507015015 | 64 | 0 | 1.0 | 6.0 | 0.03 | 0.16 | 0.16 | 92 | 1009.6 |
| 20260507014533 | 65 | 0 | 0.0 | 5.0 | 0.03 | 0.16 | 0.16 | 92 | 1009.6 |
| 20260507014015 | 65 | 360 | 2.0 | 6.0 | 0.03 | 0.16 | 0.16 | 91 | 1009.9 |
| 20260507013516 | 65 | 360 | 3.0 | 6.0 | 0.03 | 0.16 | 0.16 | 91 | 1010.2 |
| 20260507013036 | 65 | 360 | 2.0 | 5.0 | 0.03 | 0.16 | 0.16 | 91 | 1010.3 |
| 20260507012517 | 65 | 360 | 2.0 | 5.0 | 0.03 | 0.16 | 0.16 | 90 | 1010.4 |
| 20260507012016 | 65 | 360 | 0.0 | 4.0 | 0.03 | 0.16 | 0.16 | 89 | 1010.3 |
| 20260507011535 | 66 | 360 | 2.0 | 4.0 | 0.03 | 0.16 | 0.16 | 88 | 1010.4 |
| 20260507011015 | 66 | 360 | 2.0 | 4.0 | 0.03 | 0.16 | 0.16 | 88 | 1010.6 |
| 20260507010519 | 66 | 360 | 1.0 | 2.0 | 0.02 | 0.15 | 0.15 | 87 | 1010.6 |
| 20260507010038 | 66 | 0 | 0.0 | 0.0 | 0.00 | 0.13 | 0.13 | 86 | 1010.5 |
| 20260507005518 | 66 | 0 | 0.0 | 0.0 | 0.00 | 0.13 | 0.13 | 86 | 1010.3 |
| 20260507005017 | 66 | 0 | 0.0 | 0.0 | 0.00 | 0.13 | 0.13 | 86 | 1010.3 |
| 20260507004531 | 66 | 0 | 0.0 | 0.0 | 0.00 | 0.13 | 0.13 | 85 | 1010.0 |
| 20260507004015 | 67 | 0 | 0.0 | 0.0 | 0.00 | 0.13 | 0.13 | 85 | 1010.3 |
| 20260507003517 | 67 | 0 | 0.0 | 2.0 | 0.00 | 0.13 | 0.13 | 84 | 1010.1 |
| 20260507003037 | 67 | 0 | 0.0 | 3.0 | 0.00 | 0.13 | 0.13 | 83 | 1009.9 |
| 20260507002515 | 67 | 0 | 0.0 | 3.0 | 0.00 | 0.13 | 0.13 | 83 | 1009.7 |
| 20260507002015 | 68 | 360 | 1.0 | 3.0 | 0.00 | 0.13 | 0.13 | 82 | 1009.3 |
| 20260507001547 | 68 | 0 | 1.0 | 2.0 | 0.00 | 0.13 | 0.13 | 81 | 1009.4 |
| 20260507001014 | 68 | 0 | 0.0 | 2.0 | 0.00 | 0.13 | 0.13 | 80 | 1009.5 |
| 20260507000515 | 68 | 0 | 0.0 | 2.0 | 0.00 | 0.13 | 0.13 | 80 | 1009.5 |
| 20260507000034 | 68 | 360 | 0.0 | 6.0 | 0.00 | 0.13 | 0.13 | 80 | 1009.5 |
| 20260506235515 | 69 | 0 | 0.0 | 6.0 | 0.00 | 0.13 | 0.13 | 80 | 1009.6 |
| 20260506235021 | 69 | 360 | 2.0 | 8.0 | 0.00 | 0.13 | 0.13 | 79 | 1009.5 |
| 20260506234545 | 69 | 360 | 2.0 | 8.0 | 0.00 | 0.13 | 0.13 | 79 | 1009.3 |
| 20260506234021 | 69 | 360 | 2.0 | 9.0 | 0.00 | 0.13 | 0.13 | 79 | 1009.3 |
| 20260506233516 | 69 | 360 | 2.0 | 9.0 | 0.00 | 0.13 | 0.13 | 78 | 1009.2 |
| 20260506233033 | 69 | 360 | 2.0 | 8.0 | 0.00 | 0.13 | 0.13 | 78 | 1009.1 |
| 20260506232515 | 70 | 360 | 1.0 | 8.0 | 0.00 | 0.13 | 0.13 | 78 | 1008.9 |
| 20260506232016 | 70 | 360 | 3.0 | 9.0 | 0.00 | 0.13 | 0.13 | 78 | 1008.9 |
| 20260506231538 | 70 | 360 | 2.0 | 9.0 | 0.00 | 0.13 | 0.13 | 77 | 1008.8 |
| 20260506231014 | 70 | 360 | 3.0 | 9.0 | 0.00 | 0.13 | 0.13 | 77 | 1008.7 |
| 20260506230516 | 70 | 360 | 4.0 | 9.0 | 0.00 | 0.13 | 0.13 | 77 | 1008.9 |
| 20260506230035 | 70 | 360 | 1.0 | 13.0 | 0.00 | 0.13 | 0.13 | 77 | 1008.9 |
| 20260506225515 | 70 | 360 | 5.0 | 13.0 | 0.00 | 0.13 | 0.13 | 77 | 1008.7 |
| 20260506225015 | 70 | 360 | 2.0 | 6.0 | 0.00 | 0.13 | 0.13 | 77 | 1009.0 |
| 20260506224546 | 70 | 360 | 1.0 | 10.0 | 0.00 | 0.13 | 0.13 | 77 | 1009.0 |
| 20260506224018 | 70 | 360 | 2.0 | 13.0 | 0.00 | 0.13 | 0.13 | 77 | 1008.9 |
| 20260506223516 | 70 | 360 | 5.0 | 13.0 | 0.00 | 0.13 | 0.13 | 76 | 1008.8 |
| 20260506223034 | 70 | 360 | 3.0 | 9.0 | 0.00 | 0.13 | 0.13 | 77 | 1008.8 |
| 20260506222516 | 70 | 360 | 2.0 | 9.0 | 0.00 | 0.13 | 0.13 | 77 | 1008.8 |
| 20260506222018 | 70 | 360 | 3.0 | 11.0 | 0.00 | 0.13 | 0.13 | 77 | 1008.9 |
| 20260506221536 | 71 | 360 | 5.0 | 11.0 | 0.00 | 0.13 | 0.13 | 76 | 1008.9 |
| 20260506221017 | 71 | 360 | 3.0 | 11.0 | 0.00 | 0.13 | 0.13 | 76 | 1008.9 |
| 20260506220515 | 71 | 360 | 3.0 | 13.0 | 0.00 | 0.13 | 0.13 | 75 | 1009.0 |
| 20260506220040 | 71 | 0 | 4.0 | 13.0 | 0.00 | 0.13 | 0.13 | 76 | 1008.8 |
| 20260506215517 | 71 | 360 | 4.0 | 8.0 | 0.00 | 0.13 | 0.13 | 76 | 1008.7 |
| 20260506215017 | 71 | 360 | 2.0 | 10.0 | 0.00 | 0.13 | 0.13 | 77 | 1008.7 |
| 20260506214535 | 70 | 360 | 2.0 | 10.0 | 0.00 | 0.13 | 0.13 | 77 | 1008.8 |
| 20260506214016 | 70 | 360 | 3.0 | 10.0 | 0.00 | 0.13 | 0.13 | 77 | 1008.7 |
| 20260506213515 | 70 | 360 | 2.0 | 8.0 | 0.00 | 0.13 | 0.13 | 78 | 1008.9 |
| 20260506213031 | 70 | 360 | 2.0 | 8.0 | 0.00 | 0.13 | 0.13 | 78 | 1008.8 |
| 20260506212520 | 69 | 360 | 2.0 | 9.0 | 0.00 | 0.13 | 0.13 | 79 | 1008.9 |
| 20260506212015 | 69 | 360 | 1.0 | 13.0 | 0.00 | 0.13 | 0.13 | 79 | 1008.9 |
| 20260506211536 | 69 | 360 | 3.0 | 13.0 | 0.00 | 0.13 | 0.13 | 78 | 1008.8 |
| 20260506211016 | 69 | 360 | 5.0 | 11.0 | 0.00 | 0.13 | 0.13 | 79 | 1008.7 |
| 20260506210515 | 69 | 360 | 5.0 | 10.0 | 0.00 | 0.13 | 0.13 | 78 | 1008.6 |
| 20260506210035 | 69 | 360 | 2.0 | 12.0 | 0.00 | 0.13 | 0.13 | 79 | 1008.6 |
| 20260506205515 | 69 | 360 | 5.0 | 12.0 | 0.00 | 0.13 | 0.13 | 78 | 1008.6 |
| 20260506205015 | 69 | 360 | 5.0 | 11.0 | 0.00 | 0.13 | 0.13 | 79 | 1008.4 |
| 20260506204536 | 69 | 360 | 4.0 | 12.0 | 0.00 | 0.13 | 0.13 | 79 | 1008.5 |
| 20260506204015 | 69 | 360 | 5.0 | 12.0 | 0.00 | 0.13 | 0.13 | 79 | 1008.5 |
| 20260506203516 | 69 | 360 | 5.0 | 12.0 | 0.00 | 0.13 | 0.13 | 79 | 1008.3 |
| 20260506203032 | 69 | 360 | 4.0 | 12.0 | 0.00 | 0.13 | 0.13 | 80 | 1008.3 |
| 20260506202518 | 69 | 360 | 3.0 | 9.0 | 0.00 | 0.13 | 0.13 | 80 | 1008.3 |
| 20260506202015 | 68 | 360 | 3.0 | 10.0 | 0.00 | 0.13 | 0.13 | 80 | 1008.5 |
| 20260506201532 | 68 | 360 | 4.0 | 10.0 | 0.00 | 0.13 | 0.13 | 81 | 1008.4 |
| 20260506201017 | 68 | 360 | 3.0 | 11.0 | 0.00 | 0.13 | 0.13 | 80 | 1008.5 |
| 20260506200517 | 68 | 360 | 5.0 | 11.0 | 0.00 | 0.13 | 0.13 | 80 | 1008.5 |
| 20260506200038 | 68 | 360 | 4.0 | 11.0 | 0.00 | 0.13 | 0.13 | 80 | 1008.6 |
| 20260506195515 | 68 | 360 | 3.0 | 12.0 | 0.00 | 0.13 | 0.13 | 80 | 1008.6 |
| 20260506195016 | 68 | 360 | 3.0 | 12.0 | 0.00 | 0.13 | 0.13 | 82 | 1008.6 |
| 20260506194538 | 68 | 360 | 3.0 | 14.0 | 0.00 | 0.13 | 0.13 | 81 | 1008.7 |
| 20260506194018 | 68 | 360 | 5.0 | 14.0 | 0.00 | 0.13 | 0.13 | 80 | 1008.7 |
| 20260506193516 | 68 | 360 | 6.0 | 14.0 | 0.00 | 0.13 | 0.13 | 82 | 1008.8 |
| 20260506193034 | 68 | 360 | 3.0 | 14.0 | 0.00 | 0.13 | 0.13 | 82 | 1008.7 |
| 20260506192515 | 67 | 360 | 4.0 | 14.0 | 0.00 | 0.13 | 0.13 | 82 | 1008.8 |
| 20260506192016 | 67 | 360 | 5.0 | 14.0 | 0.00 | 0.13 | 0.13 | 82 | 1008.9 |
| 20260506191535 | 67 | 360 | 2.0 | 11.0 | 0.00 | 0.13 | 0.13 | 83 | 1008.9 |
| 20260506191015 | 67 | 360 | 3.0 | 11.0 | 0.00 | 0.13 | 0.13 | 83 | 1009.2 |
| 20260506190516 | 66 | 360 | 4.0 | 11.0 | 0.00 | 0.13 | 0.13 | 83 | 1009.0 |
| 20260506190031 | 66 | 360 | 4.0 | 15.0 | 0.00 | 0.13 | 0.13 | 83 | 1009.4 |
| 20260506185515 | 66 | 360 | 6.0 | 15.0 | 0.00 | 0.13 | 0.13 | 83 | 1009.1 |
| 20260506185015 | 66 | 360 | 4.0 | 14.0 | 0.00 | 0.13 | 0.13 | 83 | 1009.4 |
| 20260506184538 | 66 | 360 | 4.0 | 11.0 | 0.00 | 0.13 | 0.13 | 83 | 1009.4 |
| 20260506184015 | 66 | 360 | 3.0 | 17.0 | 0.00 | 0.13 | 0.13 | 84 | 1009.2 |
| 20260506183515 | 66 | 360 | 5.0 | 17.0 | 0.00 | 0.13 | 0.13 | 83 | 1009.6 |
| 20260506183038 | 66 | 360 | 3.0 | 12.0 | 0.00 | 0.13 | 0.13 | 84 | 1009.7 |
| 20260506182516 | 66 | 360 | 4.0 | 13.0 | 0.00 | 0.13 | 0.13 | 84 | 1009.6 |
| 20260506182019 | 66 | 360 | 5.0 | 13.0 | 0.00 | 0.13 | 0.13 | 84 | 1009.6 |
| 20260506181543 | 66 | 360 | 5.0 | 12.0 | 0.00 | 0.13 | 0.13 | 83 | 1009.7 |
| 20260506181016 | 66 | 360 | 5.0 | 14.0 | 0.00 | 0.13 | 0.13 | 84 | 1009.5 |
| 20260506180518 | 66 | 360 | 3.0 | 14.0 | 0.00 | 0.13 | 0.13 | 84 | 1009.5 |
| 20260506180034 | 65 | 360 | 2.0 | 10.0 | 0.00 | 0.13 | 0.13 | 85 | 1009.6 |
| 20260506175516 | 65 | 360 | 4.0 | 11.0 | 0.00 | 0.13 | 0.13 | 85 | 1009.7 |
| 20260506175019 | 65 | 360 | 5.0 | 13.0 | 0.00 | 0.13 | 0.13 | 85 | 1009.4 |
| 20260506174535 | 65 | 360 | 6.0 | 13.0 | 0.00 | 0.13 | 0.13 | 85 | 1009.6 |
| 20260506174015 | 65 | 360 | 4.0 | 11.0 | 0.00 | 0.13 | 0.13 | 86 | 1009.7 |
| 20260506173516 | 64 | 360 | 4.0 | 11.0 | 0.00 | 0.13 | 0.13 | 86 | 1009.8 |
| 20260506173041 | 64 | 360 | 6.0 | 13.0 | 0.00 | 0.13 | 0.13 | 86 | 1009.8 |
| 20260506172515 | 64 | 360 | 3.0 | 13.0 | 0.00 | 0.13 | 0.13 | 86 | 1009.9 |
| 20260506172015 | 64 | 360 | 4.0 | 13.0 | 0.00 | 0.13 | 0.13 | 86 | 1009.7 |
| 20260506171536 | 64 | 360 | 5.0 | 13.0 | 0.00 | 0.13 | 0.13 | 86 | 1009.6 |
| 20260506171016 | 64 | 360 | 4.0 | 12.0 | 0.00 | 0.13 | 0.13 | 86 | 1009.7 |
| 20260506170514 | 64 | 360 | 5.0 | 14.0 | 0.00 | 0.13 | 0.13 | 87 | 1009.9 |
| 20260506170036 | 63 | 360 | 4.0 | 14.0 | 0.00 | 0.13 | 0.13 | 87 | 1009.9 |
| 20260506165515 | 63 | 360 | 4.0 | 15.0 | 0.00 | 0.13 | 0.13 | 87 | 1009.8 |
| 20260506165015 | 63 | 360 | 6.0 | 15.0 | 0.00 | 0.13 | 0.13 | 87 | 1010.1 |
| 20260506164533 | 63 | 360 | 5.0 | 16.0 | 0.00 | 0.13 | 0.13 | 87 | 1010.1 |